Aeroporto :
LOGIN :

Iscrizione | Disclaimer

   EN    FR    IT 

 










Sommario :    VFR   VFR Marginale   IFR   IFR Intensivo   IFR Molto Intensivo
Visibilità : 
Base nubi : 
>= 8 km
>= 3000ft
5 / 8 km
1000 / 3000 ft
1500m / 5 km
500 / 1000 ft
800 / 1500m
200 / 500 ft
< 800m
< 200 ft
Simboli :   Temporali  Nebbia  Neve Forte  Precipitazioni Forti  Vento > 20 kt
SIGMETs :   Varie  Temporali  Ghiacco  Turbolenza  Onda orograficha  Ceneri Vulcaniche







- Altitudine del aeroporto : 55 ft
- Codice IATA : DSA
- Carte del aeroporto


EGCN - Robin Hood Doncaster Sheffield

ULTIMO METAR :
  • 212350Z 34004KT CAVOK 10/08 Q1018

METARs OBSOLETI :
  • 212320Z 35006KT CAVOK 11/08 Q1018
  • 212250Z 34005KT CAVOK 10/07 Q1018
  • 212220Z 36004KT CAVOK 11/09 Q1018
  • 212150Z 04004KT CAVOK 13/10 Q1018
  • 212120Z 01004KT CAVOK 13/10 Q1018

TAF TAF EGCN
Valido dal 22 a 00 ore il 23 a 00 ore UTC


212253Z 2200/2224 35009KT CAVOK
PROB30
TEMPO 2203/2219 9000
BECMG 2219/2222 7000 BKN008
Nessun NOTAM noto per questo aeroporto.



MetMap, La meteo Aeronautica in un colpo d'occhio ! - Copyright ORBIFLY Dicembre 2007 - Disclaimer

ORBIFLY MET'MAP TEAM :

Programmazione e sviluppo : Alexandra Zaïnal
Concezione e sviluppo : Baudouin d'Aumeries
Co-Programmazione e sviluppo : Marc-Olivier Méhu
Supporto tecnico e logistico : Manuel Goepfert
Aiuto per la traduzione : Arnaldo La Scala

Contatto : metmap@orbifly.com




FONTI E CREDITI :

   NOAA